Date String (YYYY-MM-DD hh:mm:ss) UTC,Instrument flags,absolute air pressure of the measurement (hPa),sample flow rate (lpm),inlet stack bypass flow (lpm),air temperature of the measurement (°C),ambient temperature measured by the external sensor (°C),aerosol sample conditioner tube jacket temperature (°C),OPC LED temperature (°C),internal box temperature (°C),relative humidity of the measurement (%),span deviation,mass concentration of particles derived from Lorenz-Mie calculation of OPC scattering (μg/m³),mass concentration of particles derived from Lorenz-Mie calculation of OPC scattering (μg/m³),mass concentration of particles derived from Lorenz-Mie calculation of OPC scattering (μg/m³)
DateTimeUTC,F1_M11,P_M11,Q1_M11,Q2_M11,T1_M11,T2_M11,T3_M11,T4_M11,T5_M11,U1_M11,ZSPAN_M11,X0_M11,X2_M11,X1_M11
2024-05-18 00:00:00,SystemResetWarning,0820.8,5.00,000.00,023.3,021.9,000.0,031.6,024.8,014.7,0000.0,0008.28,0002.92,0001.89
2024-05-18 00:01:00,SystemResetWarning,0820.8,5.00,000.00,023.3,022.3,000.0,031.6,025.0,015.0,0000.0,0008.00,0002.93,0001.89
2024-05-18 00:02:00,SystemResetWarning,0820.8,4.99,000.00,023.4,022.6,000.0,031.6,025.2,015.3,0000.0,0007.64,0002.92,0001.89
2024-05-18 00:03:00,SystemResetWarning,0820.8,5.00,000.00,023.5,023.0,000.0,031.6,025.4,015.5,0000.0,0007.73,0002.93,0001.91
2024-05-18 00:04:00,SystemResetWarning,0820.8,5.00,000.00,023.6,023.2,000.0,031.6,025.5,016.0,0000.0,0007.92,0002.93,0001.93
2024-05-18 00:05:00,SystemResetWarning,0820.8,4.99,000.00,023.7,023.3,000.0,031.7,025.5,014.8,0000.0,0008.14,0002.92,0001.92
2024-05-18 00:06:00,SystemResetWarning,0820.8,4.99,000.00,023.5,021.7,000.0,031.8,024.6,014.6,0000.0,0008.16,0002.92,0001.92
2024-05-18 00:07:00,SystemResetWarning,0820.8,5.01,000.00,023.2,020.6,000.0,031.8,024.0,015.0,0000.0,0008.12,0002.91,0001.94
2024-05-18 00:08:00,SystemResetWarning,0820.8,5.01,000.00,023.1,021.1,000.0,031.7,024.3,015.7,0000.0,0007.74,0002.93,0001.97
2024-05-18 00:09:00,SystemResetWarning,0820.7,4.99,000.00,023.2,021.5,000.0,031.6,024.6,014.9,0000.0,0007.49,0003.02,0002.00
2024-05-18 00:10:00,SystemResetWarning,0820.7,5.00,000.00,023.2,021.9,000.0,031.6,024.8,014.9,0000.0,0006.97,0003.06,0002.00
2024-05-18 00:11:00,SystemResetWarning,0820.8,5.00,000.00,023.3,022.3,000.0,031.6,025.0,015.1,0000.0,0006.90,0003.05,0002.00
2024-05-18 00:12:00,SystemResetWarning,0820.8,5.00,000.00,023.4,022.7,000.0,031.6,025.2,014.6,0000.0,0006.70,0003.00,0001.98
2024-05-18 00:13:00,SystemResetWarning,0820.8,5.00,000.00,023.5,023.0,000.0,031.6,025.4,014.8,0000.0,0006.28,0002.97,0001.97
2024-05-18 00:14:00,SystemResetWarning,0820.9,4.99,000.00,023.6,023.3,000.0,031.6,025.5,014.3,0000.0,0006.01,0002.92,0001.96
2024-05-18 00:15:00,SystemResetWarning,0820.9,4.99,000.00,023.7,023.4,000.0,031.6,025.5,014.5,0000.0,0005.65,0002.90,0001.95
2024-05-18 00:16:00,SystemResetWarning,0820.8,4.99,000.00,023.6,022.0,000.0,031.7,024.8,014.9,0000.0,0005.30,0002.90,0001.95
2024-05-18 00:17:00,SystemResetWarning,0820.8,5.00,000.00,023.3,020.7,000.0,031.8,024.2,014.5,0000.0,0006.26,0002.87,0001.95
2024-05-18 00:18:00,SystemResetWarning,0820.8,5.01,000.00,023.2,021.1,000.0,031.7,024.3,014.7,0000.0,0007.10,0002.85,0001.92
2024-05-18 00:19:00,SystemResetWarning,0820.8,4.99,000.00,023.2,021.5,000.0,031.6,024.6,014.7,0000.0,0007.04,0002.81,0001.90
2024-05-18 00:20:00,SystemResetWarning,0820.8,4.98,000.00,023.2,021.9,000.0,031.6,024.8,014.4,0000.0,0006.84,0002.74,0001.88
2024-05-18 00:21:00,SystemResetWarning,0820.8,5.02,000.00,023.3,022.3,000.0,031.5,025.0,014.4,0000.0,0006.86,0002.68,0001.88
2024-05-18 00:22:00,SystemResetWarning,0820.8,5.01,000.00,023.4,022.7,000.0,031.5,025.2,014.6,0000.0,0007.09,0002.69,0001.89
2024-05-18 00:23:00,SystemResetWarning,0820.8,4.99,000.00,023.5,023.0,000.0,031.5,025.4,014.9,0000.0,0007.24,0002.76,0001.91
2024-05-18 00:24:00,SystemResetWarning,0820.8,4.99,000.00,023.6,023.3,000.0,031.6,025.5,014.1,0000.0,0007.23,0002.77,0001.92
2024-05-18 00:25:00,SystemResetWarning,0820.8,5.00,000.00,023.7,023.5,000.0,031.6,025.6,014.6,0000.0,0007.37,0002.83,0001.92
2024-05-18 00:26:00,SystemResetWarning,0820.8,5.00,000.00,023.8,023.2,000.0,031.7,025.5,014.5,0000.0,0007.49,0002.91,0001.94
2024-05-18 00:27:00,SystemResetWarning,0820.8,5.00,000.00,023.6,021.5,000.0,031.8,024.5,013.9,0000.0,0007.93,0002.95,0001.97
2024-05-18 00:28:00,SystemResetWarning,0820.8,5.00,000.00,023.3,020.8,000.0,031.8,024.2,014.3,0000.0,0007.56,0002.98,0001.97
2024-05-18 00:29:00,SystemResetWarning,0820.8,5.02,000.00,023.2,021.3,000.0,031.8,024.5,014.2,0000.0,0007.31,0003.02,0001.97
2024-05-18 00:30:00,SystemResetWarning,0820.8,4.99,000.00,023.3,021.7,000.0,031.7,024.8,015.1,0000.0,0007.47,0003.08,0002.00
2024-05-18 00:31:00,SystemResetWarning,0820.9,4.99,000.00,023.3,022.1,000.0,031.6,025.0,014.7,0000.0,0007.79,0003.13,0002.01
2024-05-18 00:32:00,SystemResetWarning,0820.8,4.99,000.00,023.4,022.5,000.0,031.6,025.1,015.1,0000.0,0007.75,0003.17,0002.01
2024-05-18 00:33:00,SystemResetWarning,0820.9,5.00,000.00,023.5,022.8,000.0,031.6,025.3,014.7,0000.0,0007.63,0003.15,0002.00
2024-05-18 00:34:00,SystemResetWarning,0821.1,5.00,000.00,023.6,023.1,000.0,031.6,025.5,014.2,0000.0,0007.55,0003.12,0002.00
2024-05-18 00:35:00,SystemResetWarning,0821.0,5.01,000.00,023.7,023.3,000.0,031.7,025.6,013.7,0000.0,0007.77,0003.11,0001.98
2024-05-18 00:36:00,SystemResetWarning,0820.8,4.99,000.00,023.7,022.5,000.0,031.8,025.1,014.3,0000.0,0008.28,0003.07,0001.97
2024-05-18 00:37:00,SystemResetWarning,0820.8,4.99,000.00,023.3,020.8,000.0,031.8,024.1,014.9,0000.0,0008.44,0003.08,0001.96
2024-05-18 00:38:00,SystemResetWarning,0820.8,5.02,000.00,023.2,020.9,000.0,031.8,024.2,014.7,0000.0,0008.12,0003.09,0001.95
2024-05-18 00:39:00,SystemResetWarning,0820.8,4.97,000.00,023.2,021.3,000.0,031.7,024.5,015.4,0000.0,0007.99,0003.08,0001.96
2024-05-18 00:40:00,SystemResetWarning,0820.9,5.01,000.00,023.2,021.7,000.0,031.6,024.7,014.6,0000.0,0007.90,0003.09,0001.97
2024-05-18 00:41:00,SystemResetWarning,0820.9,5.01,000.00,023.3,022.1,000.0,031.6,024.9,014.5,0000.0,0007.78,0003.05,0001.97
2024-05-18 00:42:00,SystemResetWarning,0820.9,4.99,000.00,023.4,022.5,000.0,031.6,025.1,015.0,0000.0,0007.45,0002.96,0001.96
2024-05-18 00:43:00,SystemResetWarning,0820.9,4.99,000.00,023.5,022.8,000.0,031.6,025.3,014.6,0000.0,0007.33,0002.89,0001.95
2024-05-18 00:44:00,SystemResetWarning,0821.1,4.99,000.00,023.6,023.1,000.0,031.6,025.5,014.1,0000.0,0007.29,0002.90,0001.95
2024-05-18 00:45:00,SystemResetWarning,0821.1,5.00,000.00,023.7,023.4,000.0,031.6,025.6,014.1,0000.0,0007.29,0002.90,0001.95
2024-05-18 00:46:00,SystemResetWarning,0821.0,5.00,000.00,023.8,023.4,000.0,031.7,025.6,014.3,0000.0,0006.90,0002.89,0001.95
2024-05-18 00:47:00,SystemResetWarning,0820.9,5.00,000.00,023.6,021.9,000.0,031.8,024.8,015.1,0000.0,0006.46,0002.89,0001.95
2024-05-18 00:48:00,SystemResetWarning,0820.8,5.01,000.00,023.3,020.7,000.0,031.8,024.1,014.1,0000.0,0007.76,0002.83,0001.95
2024-05-18 00:49:00,SystemResetWarning,0820.8,5.02,000.00,023.2,021.1,000.0,031.8,024.3,014.4,0000.0,0008.40,0002.81,0001.95
2024-05-18 00:50:00,SystemResetWarning,0820.9,4.99,000.00,023.2,021.5,000.0,031.7,024.6,014.3,0000.0,0008.32,0002.78,0001.94
2024-05-18 00:51:00,SystemResetWarning,0821.0,5.00,000.00,023.3,021.9,000.0,031.6,024.9,014.7,0000.0,0008.26,0002.75,0001.94
2024-05-18 00:52:00,SystemResetWarning,0820.9,4.99,000.00,023.4,022.3,000.0,031.6,025.0,014.0,0000.0,0008.20,0002.74,0001.94
2024-05-18 00:53:00,SystemResetWarning,0821.2,5.00,000.00,023.5,022.7,000.0,031.6,025.2,013.9,0000.0,0008.21,0002.75,0001.94
2024-05-18 00:54:00,SystemResetWarning,0821.1,5.01,000.00,023.6,023.0,000.0,031.6,025.4,013.9,0000.0,0008.24,0002.77,0001.94
2024-05-18 00:55:00,SystemResetWarning,0820.9,4.99,000.00,023.7,023.2,000.0,031.6,025.5,013.7,0000.0,0008.24,0002.77,0001.94
2024-05-18 00:56:00,SystemResetWarning,0821.0,4.99,000.00,023.8,023.4,000.0,031.6,025.7,013.7,0000.0,0008.19,0002.78,0001.94
2024-05-18 00:57:00,SystemResetWarning,0821.3,5.00,000.00,023.8,023.1,000.0,031.7,025.5,013.6,0000.0,0008.19,0002.78,0001.94
2024-05-18 00:58:00,SystemResetWarning,0821.2,5.00,000.00,023.6,021.2,000.0,031.8,024.5,014.2,0000.0,0007.82,0002.77,0001.95
2024-05-18 00:59:00,SystemResetWarning,0821.1,5.02,000.00,023.3,020.7,000.0,031.8,024.1,015.1,0000.0,0006.37,0002.77,0001.95
